All Spectrum Aviation - Van Nuys Airport - KVNY

HOME

Van Nuys Tower Recordings

Condor Squadron KVNY Webcam

Visit our Electronics Store

2015/08/31 03:51 KVNY 310351Z 13004KT 10SM SCT200 24/16 A2984 RMK AO2 SLP094 T02440156
LATEST VAN NUYS ATIS IN MP3!
Older ATIS Recordings

Condor Squadron KVNY Webcam
Click to view larger images and timelapse / youtube videos!

HOME

Van Nuys Tower Recordings

Condor Squadron KVNY Webcam

Visit our Electronics Store